Location: ?astrovice
(49.6513°N, 14.9287°E)
Time: 19:00:15
(UTC+00:00)

Cosmos 968 Rocket - Pass Details

Date: 09 April 2020
Orbit: 741 x 771 km, 74.0° (Epoch: 03 June)

Event Time Altitude Azimuth Distance (km) Brightness Sun altitude
Exits shadow 22:25:36 48° 351° (N) 993 4.3 -31.8°
Drops below altitude 10° 22:29:37 10° 19° (NNE) 2,320 6.7 -31.9°
Sets 22:32:02 0° 22° (NNE) 3,253 7.6 -32.0°
